Hourly Weather Runivshchyna

Today, 15 April, Thursday

Time Temperature Precipitation Wind Pressure Humidity
00:00 +10°C° 0 mm 1 mps 751 mmHg 86%
01:00 +9°C° 0 mm 2 mps 751 mmHg 87%
02:00 +8°C° 0 mm 2 mps 751 mmHg 88%
03:00 +8°C° 0 mm 2 mps 751 mmHg 87%
04:00 +7°C° 0 mm 2 mps 750 mmHg 87%
05:00 +7°C° 0 mm 2 mps 750 mmHg 87%
06:00 +8°C° 0 mm 3 mps 750 mmHg 81%
07:00 +9°C° 0 mm 3 mps 750 mmHg 75%
08:00 +10°C° 0 mm 4 mps 751 mmHg 69%
09:00 +11°C° 0 mm 4 mps 750 mmHg 68%
10:00 +12°C° 0 mm 4 mps 750 mmHg 66%
11:00 +12°C° 0 mm 4 mps 750 mmHg 64%
12:00 +12°C° 0.1 mm 4 mps 750 mmHg 66%
13:00 +12°C° 0.1 mm 4 mps 750 mmHg 67%
14:00 +12°C° 0.1 mm 4 mps 750 mmHg 68%
15:00 +11°C° 0.8 mm 4 mps 749 mmHg 74%
16:00 +11°C° 0.8 mm 4 mps 749 mmHg 79%
17:00 +10°C° 0.8 mm 4 mps 749 mmHg 85%
18:00 +10°C° 1.4 mm 4 mps 749 mmHg 85%
19:00 +9°C° 1.4 mm 3 mps 749 mmHg 85%
20:00 +9°C° 1.4 mm 3 mps 750 mmHg 86%
21:00 +9°C° 0.2 mm 3 mps 750 mmHg 86%
22:00 +8°C° 0.2 mm 3 mps 749 mmHg 86%
23:00 +8°C° 0.2 mm 3 mps 749 mmHg 86%

Tomorrow, 16 April, Friday

Time Temperature Precipitation Wind Pressure Humidity
00:00 +8°C° 0.1 mm 3 mps 749 mmHg 87%
01:00 +7°C° 0.1 mm 4 mps 749 mmHg 89%
02:00 +7°C° 0.1 mm 4 mps 749 mmHg 90%
03:00 +7°C° 0.1 mm 4 mps 750 mmHg 91%
04:00 +6°C° 0.1 mm 4 mps 750 mmHg 92%
05:00 +6°C° 0.1 mm 4 mps 750 mmHg 93%
06:00 +7°C° 0 mm 4 mps 750 mmHg 90%
07:00 +7°C° 0 mm 4 mps 750 mmHg 88%
08:00 +7°C° 0 mm 5 mps 751 mmHg 86%
09:00 +8°C° 0 mm 5 mps 751 mmHg 82%
10:00 +8°C° 0 mm 5 mps 751 mmHg 79%
11:00 +9°C° 0 mm 5 mps 751 mmHg 75%
12:00 +9°C° 0.2 mm 5 mps 752 mmHg 74%
13:00 +9°C° 0.2 mm 6 mps 752 mmHg 72%
14:00 +10°C° 0.2 mm 6 mps 752 mmHg 70%
15:00 +9°C° 0.1 mm 5 mps 752 mmHg 70%
16:00 +9°C° 0.1 mm 5 mps 752 mmHg 71%
17:00 +8°C° 0.1 mm 4 mps 752 mmHg 71%
18:00 +9°C° 0.1 mm 3 mps 752 mmHg 75%
19:00 +8°C° 0.1 mm 3 mps 753 mmHg 79%
20:00 +7°C° 0.1 mm 2 mps 753 mmHg 83%
21:00 +7°C° 0.2 mm 2 mps 753 mmHg 84%
22:00 +7°C° 0.2 mm 2 mps 753 mmHg 86%
23:00 +7°C° 0.2 mm 2 mps 753 mmHg 87%

Day after tomorrow, 17 April, Saturday

Time Temperature Precipitation Wind Pressure Humidity
00:00 +6°C° 0 mm 2 mps 753 mmHg 87%
01:00 +6°C° 0 mm 2 mps 754 mmHg 87%
02:00 +6°C° 0 mm 2 mps 754 mmHg 87%
03:00 +6°C° 0 mm 2 mps 754 mmHg 87%
04:00 +6°C° 0 mm 2 mps 754 mmHg 88%
05:00 +5°C° 0 mm 2 mps 754 mmHg 88%
06:00 +6°C° 0 mm 2 mps 755 mmHg 84%
07:00 +6°C° 0 mm 2 mps 755 mmHg 79%
08:00 +7°C° 0 mm 2 mps 755 mmHg 74%
09:00 +7°C° 0 mm 3 mps 756 mmHg 72%
10:00 +8°C° 0 mm 3 mps 756 mmHg 70%
11:00 +8°C° 0 mm 3 mps 756 mmHg 68%
12:00 +8°C° 0 mm 4 mps 756 mmHg 65%
13:00 +8°C° 0 mm 4 mps 756 mmHg 63%
14:00 +9°C° 0 mm 5 mps 756 mmHg 60%
15:00 +10°C° 0 mm 4 mps 756 mmHg 61%
16:00 +10°C° 0 mm 4 mps 756 mmHg 63%
17:00 +8°C° 0 mm 4 mps 756 mmHg 65%
18:00 +9°C° 0 mm 3 mps 756 mmHg 70%
19:00 +8°C° 0 mm 2 mps 756 mmHg 75%
20:00 +7°C° 0 mm 2 mps 756 mmHg 80%
21:00 +8°C° 0.1 mm 1 mps 756 mmHg 81%
22:00 +8°C° 0.1 mm 1 mps 756 mmHg 83%
23:00 +8°C° 0.1 mm 1 mps 756 mmHg 84%

18 April, Sunday

Time Temperature Precipitation Wind Pressure Humidity
00:00 +8°C° 0.1 mm 1 mps 756 mmHg 85%
01:00 +8°C° 0.1 mm 1 mps 755 mmHg 86%
02:00 +8°C° 0.1 mm 1 mps 755 mmHg 87%
03:00 +7°C° 0 mm 1 mps 755 mmHg 87%
04:00 +7°C° 0 mm 1 mps 755 mmHg 87%
05:00 +7°C° 0 mm 1 mps 755 mmHg 88%
06:00 +7°C° 0 mm 1 mps 755 mmHg 83%
07:00 +8°C° 0 mm 1 mps 755 mmHg 78%
08:00 +9°C° 0 mm 1 mps 755 mmHg 72%
09:00 +9°C° 0 mm 2 mps 755 mmHg 67%
10:00 +10°C° 0 mm 2 mps 755 mmHg 62%
11:00 +12°C° 0 mm 2 mps 755 mmHg 57%
12:00 +13°C° 0 mm 2 mps 755 mmHg 54%
13:00 +13°C° 0 mm 2 mps 755 mmHg 51%
14:00 +14°C° 0 mm 2 mps 754 mmHg 48%
15:00 +14°C° 0 mm 2 mps 754 mmHg 49%
16:00 +14°C° 0 mm 2 mps 754 mmHg 50%
17:00 +14°C° 0 mm 2 mps 754 mmHg 51%
18:00 +13°C° 0 mm 2 mps 755 mmHg 56%
19:00 +12°C° 0 mm 2 mps 755 mmHg 62%
20:00 +10°C° 0 mm 3 mps 755 mmHg 67%
21:00 +10°C° 0 mm 2 mps 755 mmHg 70%
22:00 +9°C° 0 mm 2 mps 755 mmHg 72%
23:00 +9°C° 0 mm 2 mps 755 mmHg 75%

19 April, Monday

Time Temperature Precipitation Wind Pressure Humidity
00:00 +8°C° 0 mm 2 mps 755 mmHg 77%
01:00 +8°C° 0 mm 2 mps 755 mmHg 80%
02:00 +8°C° 0 mm 2 mps 755 mmHg 82%
03:00 +7°C° 0 mm 2 mps 755 mmHg 83%
04:00 +7°C° 0 mm 2 mps 755 mmHg 83%
05:00 +7°C° 0 mm 2 mps 755 mmHg 84%
06:00 +8°C° 0 mm 2 mps 755 mmHg 79%
07:00 +9°C° 0 mm 3 mps 755 mmHg 74%
08:00 +10°C° 0 mm 3 mps 755 mmHg 69%
09:00 +11°C° 0 mm 3 mps 755 mmHg 63%
10:00 +12°C° 0 mm 3 mps 754 mmHg 57%
11:00 +13°C° 0 mm 3 mps 754 mmHg 51%
12:00 +14°C° 0 mm 3 mps 754 mmHg 48%
13:00 +14°C° 0 mm 3 mps 753 mmHg 46%
14:00 +16°C° 0 mm 3 mps 753 mmHg 43%
15:00 +14°C° 0 mm 4 mps 753 mmHg 47%
16:00 +14°C° 0 mm 5 mps 753 mmHg 51%
17:00 +13°C° 0 mm 6 mps 752 mmHg 55%
18:00 +11°C° 0 mm 6 mps 752 mmHg 59%
19:00 +10°C° 0 mm 7 mps 752 mmHg 63%
20:00 +10°C° 0 mm 7 mps 751 mmHg 67%
21:00 +9°C° 0 mm 7 mps 751 mmHg 69%
22:00 +9°C° 0 mm 8 mps 751 mmHg 72%
23:00 +7°C° 0 mm 8 mps 751 mmHg 75%

20 April, Tuesday

Time Temperature Precipitation Wind Pressure Humidity
00:00 +7°C° 0 mm 8 mps 750 mmHg 77%
01:00 +7°C° 0 mm 9 mps 750 mmHg 80%
02:00 +6°C° 0 mm 9 mps 749 mmHg 82%
03:00 +6°C° 0 mm 9 mps 749 mmHg 81%
04:00 +5°C° 0 mm 9 mps 748 mmHg 80%
05:00 +5°C° 0 mm 9 mps 748 mmHg 79%
06:00 +5°C° 0.1 mm 9 mps 747 mmHg 79%
07:00 +5°C° 0.1 mm 9 mps 747 mmHg 80%
08:00 +5°C° 0.1 mm 9 mps 746 mmHg 81%
09:00 +5°C° 1.7 mm 9 mps 745 mmHg 83%
10:00 +5°C° 1.7 mm 10 mps 744 mmHg 86%
11:00 +5°C° 1.7 mm 10 mps 744 mmHg 88%
12:00 +3°C° 4 mm 10 mps 743 mmHg 90%
13:00 +3°C° 4 mm 10 mps 743 mmHg 92%
14:00 +2°C° 4 mm 10 mps 742 mmHg 93%
15:00 +2°C° 1.1 mm 9 mps 742 mmHg 93%
16:00 +3°C° 1.1 mm 9 mps 741 mmHg 92%
17:00 +3°C° 1.1 mm 9 mps 740 mmHg 92%
18:00 +4°C° 0.2 mm 8 mps 740 mmHg 93%
19:00 +5°C° 0.2 mm 7 mps 740 mmHg 93%
20:00 +5°C° 0.2 mm 6 mps 740 mmHg 94%
21:00 +6°C° 0.2 mm 5 mps 740 mmHg 93%
22:00 +6°C° 0.2 mm 5 mps 740 mmHg 93%
23:00 +7°C° 0.2 mm 4 mps 740 mmHg 92%
Show more